Header for Extended Forecast Station List Page

Search by: ID | Name | Date | Parm | Value | Avg | % Avg
Sort by: ID | Name | Date | Parm | Value | Avg | % Avg

Enter search or view all records.

Click on id for station plot
#IDNameDateParmValueAvg% Avg
0MILI1SNAKE-AT MILNER01-25-2021DISCHARGE (KAF)487516
1HOTI1BRUNEAU-NEAR HOT SPRINGS01-25-2021DISCHARGE (KAF)4912041
2MAGI1BIG WOOD-MAGIC DAM01-25-2021INFLOW (KAF)6715344
3HALI1BIG WOOD-AT HAILEY01-25-2021DISCHARGE (KAF)539855
4HWRI1BIG LOST-AT HOWELL RANCH NEAR CHILLY01-25-2021DISCHARGE (KAF)274658
5RIDI1WILLOW CREEK-RIRIE DAM01-25-2021INFLOW (KAF)223759
6PIHI1PORTNEUF-AT POCATELLO01-25-2021DISCHARGE (KAF)6110061
7OWYO3OWYHEE-OWYHEE DAM01-25-2021INFLOW (KAF)21034561
8SWAI1SNAKE-BELOW SWAN FALLS01-25-2021DISCHARGE (KAF)1766274064
9BERO3MALHEUR-AGENCY VALLEY DAM01-25-2021INFLOW (KAF)335066
10ANAW1SNAKE-NEAR ANATONE01-25-2021DISCHARGE (KAF)6774986969
11WEII1SNAKE-AT WEISER01-25-2021DISCHARGE (KAF)3517503270
12JKSW4SNAKE-NEAR JACKSON01-25-2021DISCHARGE (KAF)39553973
13LWRI1LITTLE WOOD-LITTLE WOOD DAM01-25-2021INFLOW (KAF)364973
14BRNI1SNAKE-BROWNLEE DAM01-25-2021INFLOW (KAF)3979540774
15MYKO3MCKAY CREEK-NEAR PILOT ROCK01-25-2021DISCHARGE (KAF)314174
16ALPW4SNAKE-NEAR ALPINE01-25-2021DISCHARGE (KAF)54673075
17WHBI1SALMON-AT WHITEBIRD01-25-2021DISCHARGE (KAF)1845245475
18NOXM8CLARK FORK-NOXON RAPIDS DAM01-25-2021INFLOW (KAF)4234544778
19PLDI1SF SNAKE-PALISADES DAM01-25-2021INFLOW (KAF)935120578
20LGSW1SNAKE-LITTLE GOOSE DAM01-25-2021INFLOW (KAF)114821463278
21LMNW1SNAKE-LOWER MONUMENTAL DAM01-25-2021INFLOW (KAF)116861489378
22LGDW1SNAKE-LOWER GRANITE DAM01-25-2021INFLOW (KAF)114821457879
23IHDW1SNAKE-ICE HARBOR DAM01-25-2021INFLOW (KAF)116861473379
24SERO3JOHN DAY-AT SERVICE CK01-25-2021DISCHARGE (KAF)66082180
25STRM8ST. REGIS-NEAR ST. REGIS01-25-2021DISCHARGE (KAF)14417881
26MACI1BIG LOST-MACKAY RESERVOIR NEAR MACKAY01-25-2021INFLOW (KAF)313881
27EMMI1PAYETTE-NEAR EMMETT01-25-2021DISCHARGE (KAF)67883481
28CABI1CLARK FORK-CABINET GORGE DAM01-25-2021INFLOW (KAF)4719570683
29KERM8FLATHEAD-SELI’Š KSANKA QLISPE’ DAM01-25-2021INFLOW (KAF)2317274684
30LAUW1KETTLE-AT LAURIER01-25-2021DISCHARGE (KAF)74789184
31AFRI1SNAKE-AMERICAN FALLS RESERVOIR01-25-2021INFLOW (KAF)1652196884
32SRGM8CLARK FORK-AT ST REGIS01-25-2021DISCHARGE (KAF)1517177885
33ALFW1PEND OREILLE-ALBENI FALLS DAM01-25-2021INFLOW (KAF)5903697085
34JLKW4SNAKE-JACKSON LAKE AT DAM01-25-2021INFLOW (KAF)22326185
35ARAI1SF BOISE-ANDERSON RANCH DAM01-25-2021INFLOW (KAF)26030685
36REXI1HENRYS FORK-AT REXBURG01-25-2021DISCHARGE (KAF)49057186
37BFTI1SNAKE-NEAR BLACKFOOT01-25-2021DISCHARGE (KAF)1083126586
38WRMO3MALHEUR-WARM SPRINGS DAM01-25-2021INFLOW (KAF)657686
39BONO3COLUMBIA-BONNEVILLE DAM01-25-2021INFLOW (KAF)422574919486
40DEDI1DEADWOOD-NEAR LOWMAN01-25-2021INFLOW (KAF)526087
41MONO3NF JOHN DAY-AT MONUMENT01-25-2021DISCHARGE (KAF)48555987
42LYDM8KOOTENAI-LIBBY DAM01-25-2021INFLOW (KAF)1708192189
43FCFM8NF FLATHEAD-NEAR COLUMBIA FALLS01-25-2021DISCHARGE (KAF)57464389
44LLKW1SPOKANE-AT LONGLAKE01-25-2021INFLOW (KAF)2621294089
45TEAI1TETON-NEAR ST. ANTHONY01-25-2021DISCHARGE (KAF)14516389
46TDAO3COLUMBIA-THE DALLES DAM01-25-2021INFLOW (KAF)411394645489
47ABOM8CLARK FORK-ABOVE MISSOULA01-25-2021DISCHARGE (KAF)66273590
48BELM8CLARK FORK-BELOW MISSOULA01-25-2021DISCHARGE (KAF)1148127090
49SNAI1SNAKE-AT BLACKFOOT01-25-2021DISCHARGE (KAF)1112124090
50MCDW1COLUMBIA-MCNARY DAM01-25-2021INFLOW (KAF)385534262990
51JDAO3COLUMBIA-JOHN DAY DAM01-25-2021INFLOW (KAF)406704508190
52WGCM8MF FLATHEAD-NEAR WEST GLACIER01-25-2021DISCHARGE (KAF)56161591
53ANTI1HENRYS FORK-AT ST. ANTHONY01-25-2021DISCHARGE (KAF)45149691
54MODO3DESCHUTES-AT MOODY NR BIGGS01-25-2021DISCHARGE (KAF)1468160491
55KIOW1YAKIMA-AT KIONA01-25-2021DISCHARGE (KAF)90098192
56IPDI1HENRYS FORK-ISLAND PARK DAM01-25-2021INFLOW (KAF)13815092
57SHYI1SNAKE-NEAR SHELLEY01-25-2021DISCHARGE (KAF)1302141692
58BITM8BITTERROOT-NEAR MISSOULA01-25-2021DISCHARGE (KAF)48552393
59CHDW1CHELAN-LAKE CHELAN DAM01-25-2021INFLOW (KAF)39242193
60HHWM8SF FLATHEAD-HUNGRY HORSE DAM01-25-2021INFLOW (KAF)83388694
61CHJW1COLUMBIA-CHIEF JOSEPH DAM01-25-2021INFLOW (KAF)237342537094
62WELW1COLUMBIA-WELLS DAM01-25-2021INFLOW (KAF)247422634794
63RRHW1COLUMBIA-ROCKY REACH DAM01-25-2021INFLOW (KAF)251382672494
64ORFI1CLEARWATER-AT OROFINO01-25-2021DISCHARGE (KAF)2630279194
65PITW1KLICKITAT-NEAR PITT01-25-2021DISCHARGE (KAF)47650994
66CFMM8FLATHEAD-AT COLUMBIA FALLS01-25-2021DISCHARGE (KAF)2026214095
67BONM8BLACKFOOT-NEAR BONNER01-25-2021DISCHARGE (KAF)36738396
68TONW1OKANOGAN-NEAR TONASKET01-25-2021DISCHARGE (KAF)62965896
69COEI1COEUR D ALENE-COEUR D ALENE LAKE01-25-2021INFLOW (KAF)2425248398
70EASW1YAKIMA-AT EASTON01-25-2021DISCHARGE (KAF)9810098
71RILW1TIETON-RIMROCK LAKE NEAR RIMROCK01-25-2021INFLOW (KAF)11611799
72PARW1YAKIMA-NEAR PARKER01-25-2021DISCHARGE (KAF)62262899
73SIFI1SNAKE-AB EAGLE ROCK NR IDAHO FALLS01-25-2021DISCHARGE (KAF)1375138799
74CHEI1FALL RIVER-NEAR CHESTER01-25-2021DISCHARGE (KAF)196195100
75SPDI1CLEARWATER-AT SPALDING01-25-2021DISCHARGE (KAF)47084717100
76TCHW1WALLA WALLA-NEAR TOUCHET01-25-2021DISCHARGE (KAF)220219100
77UNDW1WHITE SALMON-NEAR UNDERWOOD01-25-2021DISCHARGE (KAF)358357100
78PESW1WENATCHEE-AT PESHASTIN01-25-2021DISCHARGE (KAF)711705101
79PRWW1COLUMBIA-PRIEST RAPIDS DAM01-25-2021INFLOW (KAF)2583925631101
80CSDI1NF PAYETTE-CASCADE DAM01-25-2021INFLOW (KAF)282279101
81WANW1COLUMBIA-WANAPUM DAM01-25-2021INFLOW (KAF)2584125339102
82ARDW1ENTIAT-NEAR ARDENVOIR01-25-2021DISCHARGE (KAF)7573103
83WSRI1WEISER-NEAR WEISER01-25-2021DISCHARGE (KAF)400385104
84GCDW1COLUMBIA-GRAND COULEE DAM01-25-2021INFLOW (KAF)2348622410105
85HEII1SNAKE-NEAR HEISE01-25-2021DISCHARGE (KAF)13161254105
86UMTW1YAKIMA-AT UMTANUM01-25-2021DISCHARGE (KAF)554525106
87CLFW1NACHES-NEAR CLIFFDEL01-25-2021DISCHARGE (KAF)254240106
88DLGM8CLARK FORK-AT DEER LODGE01-25-2021DISCHARGE (KAF)7570107
89RCCM8ROCK CREEK-NEAR CLINTON01-25-2021DISCHARGE (KAF)113105108
90DWRI1NF CLEARWATER-DWORSHAK DAM01-25-2021INFLOW (KAF)20971945108
91HODO3HOOD-NEAR TUCKER BRIDGE01-25-2021DISCHARGE (KAF)315289109
92SATI1ST MARIES-NEAR SANTA01-25-2021DISCHARGE (KAF)155140110
93PARI1BOISE-NEAR PARMA01-25-2021DISCHARGE (KAF)397360110
94TRYO3GRANDE RONDE-TROY01-25-2021DISCHARGE (KAF)11221011111
95PRTI1PRIEST-NEAR PRIEST RIVER01-25-2021DISCHARGE (KAF)554493112
96NACW1NACHES-NEAR NACHES01-25-2021DISCHARGE (KAF)322289112
97PDTO3UMATILLA-AT PENDLETON01-25-2021DISCHARGE (KAF)227198115
98PATW1METHOW-NEAR PATEROS01-25-2021DISCHARGE (KAF)400344117
99BUDW1BUMPING-BUMPING LAKE DAM01-25-2021INFLOW (KAF)7564117
100UMAO3UMATILLA-NEAR UMATILLA01-25-2021DISCHARGE (KAF)210176119
101CLUW1CLE ELUM-CLE ELUM LAKE01-25-2021INFLOW (KAF)266223120
102KADW1KACHESS-KACHESS DAM01-25-2021INFLOW (KAF)9881121
103GIBO3UMATILLA-NEAR GIBBON01-25-2021DISCHARGE (KAF)10283123
104LEOI1KOOTENAI-AT LEONIA01-25-2021DISCHARGE (KAF)30182402126
105KEDW1YAKIMA-KEECHELUS LAKE01-25-2021INFLOW (KAF)10784127
106TNAW1TEANAWAY-BELOW FORKS01-25-2021DISCHARGE (KAF)151119127
107BIGI1BOISE-AT GLENWOOD BRIDGE01-25-2021DISCHARGE (KAF)317249127
108BULO3BULLY CREEK-BULLY CREEK DAM01-25-2021INFLOW (KAF)159160
109BFEI1KOOTENAI-AT BONNERS FERRY01-25-2021STAGE (FT)MMM
110DRMM8CLARK FORK-NR DRUMMOND01-25-2021DISCHARGE (KAF)158MM
111HOPI1PEND OREILLE-PEND OREILLE LAKE NR HOPE01-25-2021LAKE ELEVATION (FT)MMM
112SPOW1SPOKANE-AT SPOKANE01-25-2021DISCHARGE (KAF)2290MM
113SJMI1ST JOE-AT ST MARIES01-25-2021STAGE (FT)MMM
114CIBW1COLUMBIA-AT INTL BOUNDARY01-25-2021DISCHARGE (KAF)19978MM
115LUCI1BOISE-LUCKY PEAK DAM01-25-2021INFLOW (KAF)776MM